FW0869 Weather Reports


Display with metric or nautical units.
time (UTC)temp
F
wind
direction
speed
MPH
gust
MPH
rain 1hr
in
rain 24hr
in
rain mn
in
humidity
%
barometer
mb
20260502182457 68 71 6.0 14.0 0.00 0.00 0.00 21 1022.6
20260502182401 67 38 6.0 13.0 0.00 0.00 0.00 19 1022.6
20260502182148 67 80 5.0 12.0 0.00 0.00 0.00 18 1022.8
20260502182049 67 84 5.0 12.0 0.00 0.00 0.00 18 1022.8
20260502182017 67 78 5.0 12.0 0.00 0.00 0.00 19 1022.8
20260502181948 67 67 5.0 12.0 0.00 0.00 0.00 19 1022.8
20260502181847 67 91 5.0 12.0 0.00 0.00 0.00 19 1022.8
20260502181746 67 71 5.0 12.0 0.00 0.00 0.00 19 1022.8
20260502181641 67 93 5.0 11.0 0.00 0.00 0.00 19 1022.9
20260502181541 67 34 6.0 11.0 0.00 0.00 0.00 19 1022.8
20260502181516 67 67 6.0 11.0 0.00 0.00 0.00 19 1022.8
20260502181438 67 82 6.0 11.0 0.00 0.00 0.00 20 1022.8
20260502181339 67 77 6.0 10.0 0.00 0.00 0.00 20 1022.8
20260502181238 67 65 6.0 12.0 0.00 0.00 0.00 19 1022.9
20260502181140 67 51 6.0 12.0 0.00 0.00 0.00 23 1022.9
20260502181016 67 41 6.0 12.0 0.00 0.00 0.00 20 1022.9
20260502180941 67 58 6.0 12.0 0.00 0.00 0.00 20 1022.9
20260502180732 67 77 6.0 12.0 0.00 0.00 0.00 20 1022.9
20260502180628 67 92 6.0 12.0 0.00 0.00 0.00 19 1023.0
20260502180525 67 95 6.0 12.0 0.00 0.00 0.00 18 1023.0
20260502180513 67 89 6.0 12.0 0.00 0.00 0.00 18 1023.0
20260502180424 67 78 5.0 12.0 0.00 0.00 0.00 20 1023.0
20260502180331 67 76 5.0 12.0 0.00 0.00 0.00 19 1023.0
20260502180137 67 70 6.0 13.0 0.00 0.00 0.00 19 1023.1
20260502170516 63 77 6.0 11.0 0.00 0.00 0.00 21 1023.6
20260502170510 63 62 6.0 11.0 0.00 0.00 0.00 21 1023.6
20260502170304 64 42 7.0 11.0 0.00 0.00 0.00 20 1023.6
20260502170206 64 49 6.0 11.0 0.00 0.00 0.00 21 1023.7
20260502170104 64 55 7.0 11.0 0.00 0.00 0.00 21 1023.7
20260502164341 64 77 5.0 10.0 0.00 0.00 0.00 20 1023.7
20260502164241 64 54 5.0 12.0 0.00 0.00 0.00 22 1023.6
20260502164148 63 83 5.0 12.0 0.00 0.00 0.00 24 1023.6
20260502163934 63 67 5.0 12.0 0.00 0.00 0.00 20 1023.6
20260502163856 63 39 4.0 12.0 0.00 0.00 0.00 20 1023.6
20260502163843 63 28 4.0 12.0 0.00 0.00 0.00 22 1023.7
20260502163635 63 47 4.0 12.0 0.00 0.00 0.00 22 1023.7
20260502163535 63 0 4.0 12.0 0.00 0.00 0.00 21 1023.6
20260502163432 63 49 3.0 12.0 0.00 0.00 0.00 22 1023.7
20260502163349 63 55 3.0 12.0 0.00 0.00 0.00 22 1023.7
20260502163331 63 61 3.0 11.0 0.00 0.00 0.00 23 1023.7
20260502163231 63 24 3.0 9.0 0.00 0.00 0.00 23 1023.7
20260502163131 63 80 3.0 10.0 0.00 0.00 0.00 27 1023.7
20260502163028 62 49 3.0 10.0 0.00 0.00 0.00 23 1023.7
20260502162925 62 38 3.0 10.0 0.00 0.00 0.00 22 1023.7
20260502162844 62 67 3.0 10.0 0.00 0.00 0.00 22 1023.7
20260502162824 62 40 3.0 10.0 0.00 0.00 0.00 23 1023.7
20260502162723 62 12 3.0 10.0 0.00 0.00 0.00 23 1023.7
20260502162623 62 37 3.0 10.0 0.00 0.00 0.00 22 1023.7
20260502162522 62 38 3.0 10.0 0.00 0.00 0.00 20 1023.8
20260502162420 62 84 4.0 10.0 0.00 0.00 0.00 21 1023.8
20260502162338 62 83 4.0 10.0 0.00 0.00 0.00 21 1023.8
20260502162324 63 86 4.0 10.0 0.00 0.00 0.00 21 1023.8
20260502162116 63 53 3.0 7.0 0.00 0.00 0.00 21 1023.8
20260502162026 62 94 3.0 6.0 0.00 0.00 0.00 28 1023.8
20260502161831 62 22 3.0 6.0 0.00 0.00 0.00 25 1023.8
20260502161815 62 22 3.0 6.0 0.00 0.00 0.00 21 1023.8
20260502161715 62 338 3.0 6.0 0.00 0.00 0.00 21 1023.8
20260502161613 62 44 3.0 6.0 0.00 0.00 0.00 22 1023.8
20260502161509 62 27 3.0 6.0 0.00 0.00 0.00 21 1023.8
20260502161433 63 42 3.0 7.0 0.00 0.00 0.00 21 1023.8
20260502161304 63 78 2.0 7.0 0.00 0.00 0.00 22 1023.8
20260502161205 63 323 2.0 7.0 0.00 0.00 0.00 25 1023.8
20260502161105 62 355 3.0 7.0 0.00 0.00 0.00 25 1023.9
20260502161028 62 34 3.0 8.0 0.00 0.00 0.00 25 1023.9
20260502161021 62 49 3.0 8.0 0.00 0.00 0.00 22 1023.9
20260502160602 62 26 3.0 10.0 0.00 0.00 0.00 26 1023.9
20260502160458 62 319 3.0 10.0 0.00 0.00 0.00 29 1023.9
20260502160352 62 40 3.0 10.0 0.00 0.00 0.00 27 1023.9
20260502160314 62 0 4.0 10.0 0.00 0.00 0.00 23 1023.9
20260502160301 62 102 4.0 10.0 0.00 0.00 0.00 23 1023.9
20260502152208 60 61 3.0 7.0 0.00 0.00 0.00 25 1024.2
20260502152109 60 67 2.0 7.0 0.00 0.00 0.00 25 1024.2
20260502152007 60 68 2.0 7.0 0.00 0.00 0.00 26 1024.3
20260502151933 59 68 2.0 7.0 0.00 0.00 0.00 26 1024.3
20260502151703 59 133 3.0 7.0 0.00 0.00 0.00 29 1024.3
20260502151607 59 76 3.0 6.0 0.00 0.00 0.00 28 1024.3
20260502151358 58 57 2.0 6.0 0.00 0.00 0.00 28 1024.3
20260502151253 58 257 2.0 6.0 0.00 0.00 0.00 29 1024.3
20260502151214 58 5 3.0 6.0 0.00 0.00 0.00 28 1024.3
20260502151153 58 102 3.0 6.0 0.00 0.00 0.00 28 1024.3
20260502151053 57 89 3.0 6.0 0.00 0.00 0.00 29 1024.3
20260502150952 57 53 2.0 6.0 0.00 0.00 0.00 32 1024.3
20260502150853 56 52 2.0 6.0 0.00 0.00 0.00 32 1024.4
20260502150749 56 53 2.0 6.0 0.00 0.00 0.00 32 1024.3
20260502150707 56 53 2.0 5.0 0.00 0.00 0.00 32 1024.3
20260502150650 56 36 2.0 5.0 0.00 0.00 0.00 32 1024.4
20260502150548 56 142 2.0 5.0 0.00 0.00 0.00 31 1024.3
20260502150450 55 142 2.0 5.0 0.00 0.00 0.00 31 1024.3
20260502150346 55 142 3.0 5.0 0.00 0.00 0.00 31 1024.4
20260502150243 55 180 3.0 5.0 0.00 0.00 0.00 32 1024.3
20260502150202 55 151 3.0 5.0 0.00 0.00 0.00 33 1024.3
20260502150144 54 132 3.0 5.0 0.00 0.00 0.00 33 1024.4
20260502130729 48 197 1.0 4.0 0.00 0.00 0.00 43 1024.3
20260502130629 47 197 1.0 4.0 0.00 0.00 0.00 44 1024.3
20260502130444 47 82 1.0 4.0 0.00 0.00 0.00 45 1024.3
20260502130422 46 82 1.0 4.0 0.00 0.00 0.00 45 1024.3
20260502130323 46 101 1.0 4.0 0.00 0.00 0.00 46 1024.3
20260502130222 45 75 1.0 4.0 0.00 0.00 0.00 47 1024.3
20260502130122 45 329 1.0 4.0 0.00 0.00 0.00 47 1024.3
20260502123653 34 107 1.0 3.0 0.00 0.00 0.00 64 1024.2
20260502123553 34 107 1.0 3.0 0.00 0.00 0.00 64 1024.2
20260502123448 34 136 0.0 2.0 0.00 0.00 0.00 64 1024.2
20260502123438 34 138 0.0 2.0 0.00 0.00 0.00 64 1024.2
20260502123347 34 159 0.0 2.0 0.00 0.00 0.00 64 1024.2
20260502123247 34 176 0.0 2.0 0.00 0.00 0.00 64 1024.1
20260502123147 34 188 0.0 2.0 0.00 0.00 0.00 64 1024.2
20260502123046 34 202 0.0 2.0 0.00 0.00 0.00 64 1024.1
20260502122938 34 209 0.0 2.0 0.00 0.00 0.00 64 1024.1
20260502122845 34 224 0.0 2.0 0.00 0.00 0.00 64 1024.1
20260502122743 34 255 0.0 2.0 0.00 0.00 0.00 64 1024.1
20260502122642 34 252 0.0 2.0 0.00 0.00 0.00 64 1024.1
20260502122548 35 258 0.0 2.0 0.00 0.00 0.00 64 1024.1
20260502122542 35 258 0.0 2.0 0.00 0.00 0.00 64 1024.1
20260502122334 35 258 0.0 2.0 0.00 0.00 0.00 64 1024.1
20260502122243 35 258 0.0 2.0 0.00 0.00 0.00 64 1024.1
20260502122044 35 258 0.0 2.0 0.00 0.00 0.00 64 1023.9
20260502122038 35 258 0.0 2.0 0.00 0.00 0.00 64 1023.9
20260502121832 35 294 0.0 2.0 0.00 0.00 0.00 64 1023.9
20260502121731 35 294 0.0 2.0 0.00 0.00 0.00 64 1024.1
20260502121630 35 293 0.0 2.0 0.00 0.00 0.00 64 1023.9
20260502121531 35 288 0.0 2.0 0.00 0.00 0.00 64 1023.9
20260502121430 35 284 0.0 2.0 0.00 0.00 0.00 64 1023.9
20260502121331 35 283 0.0 2.0 0.00 0.00 0.00 64 1024.1
20260502121230 35 304 0.0 2.0 0.00 0.00 0.00 64 1023.9
20260502121129 34 0 0.0 2.0 0.00 0.00 0.00 64 1024.1
20260502121028 34 9 0.0 2.0 0.00 0.00 0.00 64 1023.9
20260502120942 34 15 0.0 2.0 0.00 0.00 0.00 63 1024.1
20260502120938 34 355 0.0 2.0 0.00 0.00 0.00 63 1024.1
20260502120622 35 355 0.0 2.0 0.00 0.00 0.00 63 1023.9
20260502120531 35 160 0.0 2.0 0.00 0.00 0.00 63 1023.9
20260502120525 35 160 0.0 2.0 0.00 0.00 0.00 63 1023.9
20260502120318 35 76 0.0 2.0 0.00 0.00 0.00 63 1023.9
20260502120220 35 76 0.0 2.0 0.00 0.00 0.00 63 1023.9
20260502120116 35 76 0.0 2.0 0.00 0.00 0.00 62 1023.9
20260502115930 35 76 0.0 2.0 0.00 0.00 0.00 61 1023.9
20260502115919 35 76 0.0 2.0 0.00 0.00 0.00 62 1023.9
20260502115713 35 76 0.0 2.0 0.00 0.00 0.00 62 1023.9
20260502115610 35 76 0.0 2.0 0.00 0.00 0.00 61 1023.8
20260502115512 35 76 0.0 2.0 0.00 0.00 0.00 61 1023.8
20260502115410 35 76 0.0 2.0 0.00 0.00 0.00 61 1023.9
20260502115313 35 76 0.0 2.0 0.00 0.00 0.00 61 1023.8
20260502115111 35 76 0.0 2.0 0.00 0.00 0.00 60 1023.8
20260502114904 35 76 0.0 2.0 0.00 0.00 0.00 60 1023.8
20260502114804 35 76 0.0 2.0 0.00 0.00 0.00 60 1023.8
20260502114705 35 76 0.0 2.0 0.00 0.00 0.00 60 1023.7
20260502114602 35 76 0.0 0.0 0.00 0.00 0.00 60 1023.8
20260502114533 35 76 0.0 0.0 0.00 0.00 0.00 60 1023.8
20260502114258 35 76 0.0 2.0 0.00 0.00 0.00 60 1023.7
20260502114200 35 76 0.0 2.0 0.00 0.00 0.00 60 1023.8
20260502114056 35 76 0.0 2.0 0.00 0.00 0.00 60 1023.8
20260502113956 35 76 0.0 2.0 0.00 0.00 0.00 60 1023.7
20260502113923 35 76 1.0 2.0 0.00 0.00 0.00 60 1023.8
20260502113856 35 76 1.0 2.0 0.00 0.00 0.00 60 1023.8
20260502113756 35 76 1.0 2.0 0.00 0.00 0.00 60 1023.7
20260502113657 35 76 1.0 2.0 0.00 0.00 0.00 59 1023.7
20260502113555 35 76 1.0 2.0 0.00 0.00 0.00 59 1023.7
20260502113457 35 76 1.0 3.0 0.00 0.00 0.00 59 1023.7
20260502113250 35 76 1.0 3.0 0.00 0.00 0.00 58 1023.8
20260502113151 35 76 1.0 3.0 0.00 0.00 0.00 59 1023.7
20260502113059 35 76 1.0 3.0 0.00 0.00 0.00 59 1023.8
20260502112924 36 76 1.0 3.0 0.00 0.00 0.00 58 1023.8
20260502112851 36 76 1.0 3.0 0.00 0.00 0.00 58 1023.8
20260502112751 36 76 1.0 3.0 0.00 0.00 0.00 58 1023.8
20260502112647 36 76 1.0 3.0 0.00 0.00 0.00 58 1023.7
20260502112544 36 76 1.0 3.0 0.00 0.00 0.00 58 1023.7
20260502112424 36 76 1.0 3.0 0.00 0.00 0.00 58 1023.7
20260502112351 36 76 0.0 3.0 0.00 0.00 0.00 58 1023.7
20260502112141 36 76 0.0 2.0 0.00 0.00 0.00 58 1023.7
20260502112041 37 76 0.0 2.0 0.00 0.00 0.00 58 1023.7
20260502111945 37 76 0.0 2.0 0.00 0.00 0.00 58 1023.7
20260502111739 37 76 0.0 2.0 0.00 0.00 0.00 58 1023.7
20260502111635 37 76 0.0 2.0 0.00 0.00 0.00 58 1023.7
20260502111532 37 76 1.0 2.0 0.00 0.00 0.00 58 1023.7
20260502111412 37 76 1.0 2.0 0.00 0.00 0.00 58 1023.6
20260502111339 37 76 1.0 2.0 0.00 0.00 0.00 58 1023.6
20260502111132 37 76 1.0 3.0 0.00 0.00 0.00 57 1023.6
20260502111030 37 76 1.0 4.0 0.00 0.00 0.00 57 1023.6
20260502110906 38 76 2.0 4.0 0.00 0.00 0.00 57 1023.6
20260502110829 38 76 2.0 4.0 0.00 0.00 0.00 57 1023.6
20260502110726 38 76 2.0 4.0 0.00 0.00 0.00 56 1023.6
20260502110626 38 76 2.0 4.0 0.00 0.00 0.00 56 1023.6
20260502110526 38 76 2.0 4.0 0.00 0.00 0.00 56 1023.6
20260502110506 38 76 2.0 4.0 0.00 0.00 0.00 56 1023.7
20260502110322 38 76 2.0 4.0 0.00 0.00 0.00 56 1023.7
20260502110220 38 76 2.0 4.0 0.00 0.00 0.00 56 1023.7
20260502110120 38 76 2.0 4.0 0.00 0.00 0.00 56 1023.6
20260502110018 38 76 2.0 6.0 0.00 0.00 0.00 54 1023.7
20260502105919 38 76 2.0 7.0 0.00 0.00 0.00 54 1023.6
20260502105854 38 76 2.0 7.0 0.00 0.00 0.00 54 1023.6
20260502105818 38 76 2.0 7.0 0.00 0.00 0.00 53 1023.6
20260502105714 38 76 2.0 7.0 0.00 0.00 0.00 53 1023.6
20260502105610 38 76 2.0 7.0 0.00 0.00 0.00 53 1023.7
20260502105508 38 76 2.0 7.0 0.00 0.00 0.00 53 1023.6
20260502105456 37 76 2.0 7.0 0.00 0.00 0.00 52 1023.6
20260502105309 37 76 2.0 7.0 0.00 0.00 0.00 53 1023.6
20260502105208 37 76 2.0 7.0 0.00 0.00 0.00 53 1023.6
20260502105102 37 47 2.0 7.0 0.00 0.00 0.00 53 1023.6
20260502105002 37 70 2.0 7.0 0.00 0.00 0.00 53 1023.7
20260502104902 37 215 1.0 3.0 0.00 0.00 0.00 52 1023.5
20260502104841 37 215 1.0 3.0 0.00 0.00 0.00 52 1023.6
20260502104803 37 215 1.0 3.0 0.00 0.00 0.00 52 1023.6
20260502104702 37 215 1.0 3.0 0.00 0.00 0.00 52 1023.5
20260502104601 37 215 1.0 3.0 0.00 0.00 0.00 52 1023.6
20260502104508 37 215 1.0 3.0 0.00 0.00 0.00 52 1023.6
20260502104335 37 215 1.0 3.0 0.00 0.00 0.00 52 1023.5
20260502104258 37 215 1.0 3.0 0.00 0.00 0.00 52 1023.5
20260502104156 37 215 1.0 3.0 0.00 0.00 0.00 52 1023.5
20260502104053 37 215 2.0 3.0 0.00 0.00 0.00 52 1023.5
20260502103952 37 215 2.0 3.0 0.00 0.00 0.00 51 1023.5
20260502103938 37 215 1.0 3.0 0.00 0.00 0.00 51 1023.5
20260502103753 37 215 1.0 3.0 0.00 0.00 0.00 51 1023.6
20260502103650 37 215 1.0 3.0 0.00 0.00 0.00 51 1023.6
20260502103551 37 215 1.0 3.0 0.00 0.00 0.00 51 1023.6
20260502103457 37 215 1.0 3.0 0.00 0.00 0.00 51 1023.6
20260502103323 38 215 1.0 3.0 0.00 0.00 0.00 51 1023.6
20260502103257 38 215 1.0 2.0 0.00 0.00 0.00 51 1023.6
20260502103049 38 215 1.0 2.0 0.00 0.00 0.00 51 1023.6
20260502102948 38 215 1.0 2.0 0.00 0.00 0.00 51 1023.6
20260502102853 38 215 1.0 2.0 0.00 0.00 0.00 51 1023.5
20260502102648 38 215 1.0 2.0 0.00 0.00 0.00 51 1023.6
20260502102548 38 215 1.0 2.0 0.00 0.00 0.00 51 1023.5
20260502102449 38 215 1.0 3.0 0.00 0.00 0.00 52 1023.5
20260502102348 38 215 1.0 3.0 0.00 0.00 0.00 51 1023.6
20260502102314 38 215 1.0 3.0 0.00 0.00 0.00 51 1023.6
20260502102248 38 215 2.0 3.0 0.00 0.00 0.00 51 1023.5
20260502102148 38 215 2.0 3.0 0.00 0.00 0.00 52 1023.6
20260502102048 38 215 2.0 3.0 0.00 0.00 0.00 52 1023.5
20260502101948 38 215 2.0 3.0 0.00 0.00 0.00 52 1023.6
20260502101845 38 215 2.0 3.0 0.00 0.00 0.00 51 1023.6
20260502101814 38 215 2.0 3.0 0.00 0.00 0.00 51 1023.6
20260502101743 38 215 2.0 3.0 0.00 0.00 0.00 51 1023.6
20260502101657 38 215 2.0 3.0 0.00 0.00 0.00 52 1023.5
20260502101336 38 215 2.0 3.0 0.00 0.00 0.00 51 1023.5
20260502101312 38 215 2.0 3.0 0.00 0.00 0.00 52 1023.5
20260502101236 38 215 2.0 4.0 0.00 0.00 0.00 49 1023.6
20260502101136 38 215 2.0 4.0 0.00 0.00 0.00 49 1023.6
20260502101036 39 215 2.0 4.0 0.00 0.00 0.00 49 1023.6
20260502100936 39 215 2.0 4.0 0.00 0.00 0.00 49 1023.5
20260502100810 39 215 2.0 4.0 0.00 0.00 0.00 48 1023.5
20260502100746 39 215 2.0 4.0 0.00 0.00 0.00 48 1023.5
20260502100430 39 205 2.0 4.0 0.00 0.00 0.00 48 1023.5
20260502100309 39 205 2.0 4.0 0.00 0.00 0.00 48 1023.5
20260502100237 39 233 2.0 3.0 0.00 0.00 0.00 48 1023.5
20260502091449 41 232 3.0 6.0 0.00 0.00 0.00 45 1023.4
20260502091348 41 246 3.0 6.0 0.00 0.00 0.00 44 1023.4
20260502091309 41 225 3.0 6.0 0.00 0.00 0.00 44 1023.4
20260502091305 41 244 3.0 6.0 0.00 0.00 0.00 44 1023.4
20260502090951 41 248 3.0 6.0 0.00 0.00 0.00 44 1023.4
20260502090806 41 251 3.0 7.0 0.00 0.00 0.00 44 1023.2
20260502090743 41 237 4.0 7.0 0.00 0.00 0.00 44 1023.4
20260502090642 41 247 3.0 7.0 0.00 0.00 0.00 44 1023.2
20260502090543 41 243 3.0 7.0 0.00 0.00 0.00 44 1023.4
20260502090307 41 229 3.0 7.0 0.00 0.00 0.00 44 1023.4
20260502090226 41 229 3.0 7.0 0.00 0.00 0.00 44 1023.4
20260502090127 41 233 3.0 7.0 0.00 0.00 0.00 44 1023.4
20260502071532 43 234 2.0 4.0 0.00 0.00 0.00 41 1023.8
20260502071431 43 234 2.0 4.0 0.00 0.00 0.00 41 1023.8
20260502071301 43 234 2.0 5.0 0.00 0.00 0.00 41 1023.7
20260502071234 43 234 3.0 5.0 0.00 0.00 0.00 41 1023.7
20260502071025 43 234 3.0 5.0 0.00 0.00 0.00 41 1023.7
20260502070925 43 234 3.0 5.0 0.00 0.00 0.00 41 1023.7
20260502070906 43 234 3.0 5.0 0.00 0.00 0.00 41 1023.7
20260502070719 43 236 3.0 5.0 0.00 0.00 0.00 41 1023.8
20260502070618 43 228 3.0 5.0 0.00 0.00 0.00 41 1023.7
20260502070518 43 234 3.0 5.0 0.00 0.00 0.00 41 1023.8
20260502070417 43 233 3.0 5.0 0.00 0.00 0.00 41 1023.8
20260502070313 43 219 3.0 4.0 0.00 0.00 0.00 41 1023.8
20260502070259 43 259 3.0 4.0 0.00 0.00 0.00 41 1023.8
20260502070212 43 259 3.0 4.0 0.00 0.00 0.00 41 1023.7
20260502070110 43 259 3.0 5.0 0.00 0.00 0.00 41 1023.8
20260502070011 43 259 3.0 5.0 0.00 0.00 0.00 41 1023.8
20260502065909 43 259 3.0 5.0 0.00 0.00 0.00 41 1023.8
20260502065902 43 259 3.0 5.0 0.00 0.00 0.00 41 1023.8
20260502065705 43 263 3.0 5.0 0.00 0.00 0.00 41 1023.8
20260502065604 43 246 3.0 5.0 0.00 0.00 0.00 40 1023.8
20260502065503 43 246 3.0 5.0 0.00 0.00 0.00 41 1023.8
20260502065405 43 249 3.0 5.0 0.00 0.00 0.00 40 1023.8
20260502065308 43 249 3.0 5.0 0.00 0.00 0.00 41 1023.8
20260502064956 43 248 3.0 5.0 0.00 0.00 0.00 41 1023.9
20260502064856 43 246 2.0 4.0 0.00 0.00 0.00 40 1023.8
20260502064801 44 256 2.0 4.0 0.00 0.00 0.00 40 1023.8
20260502064756 44 254 2.0 4.0 0.00 0.00 0.00 40 1023.8
20260502064550 44 238 2.0 4.0 0.00 0.00 0.00 40 1023.9
20260502064450 44 238 2.0 4.0 0.00 0.00 0.00 40 1023.8
20260502064349 44 234 2.0 4.0 0.00 0.00 0.00 40 1023.9
20260502064244 44 234 2.0 4.0 0.00 0.00 0.00 40 1023.9
20260502064144 44 229 2.0 4.0 0.00 0.00 0.00 40 1023.9
20260502064044 44 240 2.0 4.0 0.00 0.00 0.00 40 1023.9
20260502063944 44 240 2.0 4.0 0.00 0.00 0.00 40 1023.9
20260502063907 44 240 2.0 4.0 0.00 0.00 0.00 39 1023.9
20260502063901 44 240 2.0 4.0 0.00 0.00 0.00 39 1023.9
20260502063439 44 240 2.0 4.0 0.00 0.00 0.00 39 1023.9
20260502063339 44 240 3.0 4.0 0.00 0.00 0.00 39 1023.8
20260502063239 44 240 3.0 4.0 0.00 0.00 0.00 39 1023.8
20260502063139 44 240 3.0 4.0 0.00 0.00 0.00 39 1023.8
20260502063036 44 240 3.0 4.0 0.00 0.00 0.00 38 1023.8
20260502062935 45 240 3.0 4.0 0.00 0.00 0.00 38 1023.8
20260502062836 45 240 3.0 4.0 0.00 0.00 0.00 39 1023.8
20260502062736 45 267 3.0 4.0 0.00 0.00 0.00 39 1023.8
20260502062634 45 267 3.0 4.0 0.00 0.00 0.00 38 1023.8
20260502062538 45 267 3.0 4.0 0.00 0.00 0.00 38 1023.8
20260502062345 45 276 3.0 4.0 0.00 0.00 0.00 38 1023.8
20260502062337 45 276 3.0 4.0 0.00 0.00 0.00 38 1023.8
20260502062132 45 276 3.0 4.0 0.00 0.00 0.00 38 1023.8
20260502062032 45 276 2.0 4.0 0.00 0.00 0.00 38 1023.9
20260502061930 45 276 3.0 4.0 0.00 0.00 0.00 38 1023.8
20260502061830 45 276 2.0 4.0 0.00 0.00 0.00 38 1023.8
20260502061728 45 276 2.0 4.0 0.00 0.00 0.00 38 1023.8
20260502061524 45 276 2.0 4.0 0.00 0.00 0.00 37 1023.8
20260502061425 45 276 2.0 4.0 0.00 0.00 0.00 37 1023.8
20260502061358 45 276 2.0 4.0 0.00 0.00 0.00 37 1023.8
20260502061222 45 276 2.0 4.0 0.00 0.00 0.00 37 1023.8
20260502061128 45 276 2.0 4.0 0.00 0.00 0.00 37 1023.8
20260502060918 45 276 2.0 4.0 0.00 0.00 0.00 37 1023.8
20260502060818 46 276 2.0 4.0 0.00 0.00 0.00 37 1023.8
20260502060752 46 276 2.0 4.0 0.00 0.00 0.00 37 1023.8
20260502060716 46 276 2.0 4.0 0.00 0.00 0.00 37 1023.8
20260502060613 46 276 2.0 4.0 0.00 0.00 0.00 37 1023.8
20260502060519 46 276 2.0 4.0 0.00 0.00 0.00 37 1023.8
20260502060311 46 276 2.0 4.0 0.00 0.00 0.00 37 1023.9
20260502060252 46 276 2.0 4.0 0.00 0.00 0.00 37 1023.9
20260502060210 46 276 2.0 4.0 0.00 0.00 0.00 37 1023.8
20260502060109 46 276 2.0 4.0 0.00 0.00 0.00 37 1023.9
20260502060010 46 276 2.0 4.0 0.00 0.00 0.00 37 1023.9
20260502055915 46 276 2.0 4.0 0.00 0.00 0.00 37 1023.9
20260502055751 46 276 2.0 4.0 0.00 0.00 0.00 37 1023.9
20260502055708 46 276 2.0 4.0 0.00 0.00 0.00 37 1023.9
20260502055614 46 276 2.0 4.0 0.00 0.00 0.00 37 1023.9
20260502055250 46 276 3.0 4.0 0.00 0.00 0.00 36 1023.9
20260502055201 46 276 3.0 4.0 0.00 0.00 0.00 37 1023.9
20260502055057 46 276 3.0 6.0 0.00 0.00 0.00 36 1023.9
20260502055005 46 276 3.0 6.0 0.00 0.00 0.00 36 1023.9
20260502054957 47 276 3.0 6.0 0.00 0.00 0.00 36 1023.9
20260502054644 47 259 3.0 6.0 0.00 0.00 0.00 36 1023.9
20260502054542 47 259 3.0 6.0 0.00 0.00 0.00 36 1023.9
20260502054436 47 259 3.0 6.0 0.00 0.00 0.00 36 1023.8
20260502054356 47 252 3.0 6.0 0.00 0.00 0.00 36 1023.8
20260502054237 47 271 3.0 6.0 0.00 0.00 0.00 36 1023.9
20260502054136 47 246 3.0 6.0 0.00 0.00 0.00 36 1023.8
20260502054036 47 257 3.0 6.0 0.00 0.00 0.00 36 1023.8
20260502053937 47 255 3.0 6.0 0.00 0.00 0.00 36 1023.9
20260502053836 47 260 3.0 6.0 0.00 0.00 0.00 36 1023.9
20260502053732 47 261 4.0 6.0 0.00 0.00 0.00 36 1023.8
20260502053640 47 261 4.0 6.0 0.00 0.00 0.00 35 1023.9
20260502053432 47 250 4.0 6.0 0.00 0.00 0.00 35 1023.8
20260502053356 47 251 3.0 6.0 0.00 0.00 0.00 35 1023.9
20260502053232 47 252 3.0 6.0 0.00 0.00 0.00 35 1023.9
20260502053132 47 249 3.0 6.0 0.00 0.00 0.00 35 1023.9
20260502053032 47 251 3.0 6.0 0.00 0.00 0.00 35 1023.9
20260502052933 47 261 2.0 6.0 0.00 0.00 0.00 35 1023.8
20260502052856 47 259 2.0 6.0 0.00 0.00 0.00 35 1023.8
20260502052739 48 249 2.0 4.0 0.00 0.00 0.00 35 1023.8
20260502052533 48 289 2.0 3.0 0.00 0.00 0.00 34 1023.9
20260502052432 48 289 2.0 3.0 0.00 0.00 0.00 34 1023.8
20260502052332 48 289 2.0 3.0 0.00 0.00 0.00 34 1023.8
20260502052232 48 289 2.0 3.0 0.00 0.00 0.00 34 1023.9
20260502052132 48 289 2.0 3.0 0.00 0.00 0.00 34 1023.9
20260502052032 48 289 2.0 3.0 0.00 0.00 0.00 34 1023.8
20260502051933 48 289 2.0 3.0 0.00 0.00 0.00 34 1023.8
20260502051833 48 289 2.0 3.0 0.00 0.00 0.00 34 1023.8
20260502051753 48 289 2.0 3.0 0.00 0.00 0.00 34 1023.8
20260502051333 48 289 1.0 3.0 0.00 0.00 0.00 35 1023.8
20260502051232 48 289 1.0 3.0 0.00 0.00 0.00 35 1023.9
20260502051132 49 289 1.0 3.0 0.00 0.00 0.00 35 1023.8
20260502051033 49 289 1.0 3.0 0.00 0.00 0.00 35 1023.9
20260502050931 49 289 1.0 3.0 0.00 0.00 0.00 36 1023.8
20260502050856 49 289 1.0 3.0 0.00 0.00 0.00 35 1023.8
20260502050739 49 289 1.0 3.0 0.00 0.00 0.00 35 1023.8
20260502050533 49 289 2.0 4.0 0.00 0.00 0.00 36 1023.8
20260502050447 49 289 2.0 4.0 0.00 0.00 0.00 36 1023.8
20260502050334 49 289 2.0 4.0 0.00 0.00 0.00 36 1023.8
20260502050129 49 289 2.0 4.0 0.00 0.00 0.00 35 1023.8
20260502050029 49 289 2.0 4.0 0.00 0.00 0.00 35 1023.8
20260502045929 49 289 2.0 6.0 0.00 0.00 0.00 35 1023.8
20260502045830 49 289 3.0 6.0 0.00 0.00 0.00 35 1023.8
20260502045730 49 289 2.0 6.0 0.00 0.00 0.00 35 1023.8
20260502045629 49 289 2.0 6.0 0.00 0.00 0.00 34 1023.8
20260502045529 49 289 2.0 6.0 0.00 0.00 0.00 35 1023.8
20260502045430 49 289 3.0 6.0 0.00 0.00 0.00 35 1023.8
20260502045329 49 289 3.0 6.0 0.00 0.00 0.00 35 1023.8
20260502045236 49 289 3.0 6.0 0.00 0.00 0.00 34 1023.8
20260502045030 49 297 3.0 6.0 0.00 0.00 0.00 35 1023.8
20260502044929 49 294 3.0 6.0 0.00 0.00 0.00 35 1023.8
20260502044830 49 275 3.0 6.0 0.00 0.00 0.00 35 1023.8
20260502044729 49 273 3.0 4.0 0.00 0.00 0.00 35 1023.8
20260502044636 49 273 3.0 4.0 0.00 0.00 0.00 35 1023.8
20260502044429 49 292 3.0 4.0 0.00 0.00 0.00 35 1023.8
20260502044325 49 263 3.0 4.0 0.00 0.00 0.00 35 1023.7
20260502044225 49 263 3.0 4.0 0.00 0.00 0.00 35 1023.7
20260502044127 49 263 3.0 4.0 0.00 0.00 0.00 35 1023.7
20260502044026 49 263 2.0 4.0 0.00 0.00 0.00 34 1023.7
20260502043925 49 263 2.0 4.0 0.00 0.00 0.00 34 1023.7
20260502043837 49 307 2.0 4.0 0.00 0.00 0.00 35 1023.7
20260502043830 49 307 3.0 4.0 0.00 0.00 0.00 35 1023.7
20260502043625 49 321 3.0 4.0 0.00 0.00 0.00 34 1023.7
20260502043525 49 283 2.0 4.0 0.00 0.00 0.00 34 1023.7
20260502043426 49 279 2.0 4.0 0.00 0.00 0.00 34 1023.7
20260502043326 49 267 3.0 4.0 0.00 0.00 0.00 34 1023.6
20260502043248 49 316 3.0 4.0 0.00 0.00 0.00 34 1023.7
20260502043223 49 316 3.0 4.0 0.00 0.00 0.00 33 1023.7
20260502043122 49 316 3.0 4.0 0.00 0.00 0.00 33 1023.6
20260502043021 49 316 3.0 4.0 0.00 0.00 0.00 33 1023.6
20260502042919 49 289 3.0 4.0 0.00 0.00 0.00 33 1023.6
20260502042819 49 304 3.0 4.0 0.00 0.00 0.00 32 1023.6
20260502042748 49 304 3.0 4.0 0.00 0.00 0.00 32 1023.6
20260502042717 49 296 3.0 4.0 0.00 0.00 0.00 32 1023.6
20260502042614 49 296 3.0 5.0 0.00 0.00 0.00 32 1023.6
20260502042514 49 296 3.0 5.0 0.00 0.00 0.00 32 1023.6
20260502042413 49 296 3.0 5.0 0.00 0.00 0.00 32 1023.6
20260502042311 49 312 3.0 5.0 0.00 0.00 0.00 32 1023.5
20260502042246 49 319 3.0 5.0 0.00 0.00 0.00 32 1023.6
20260502042208 49 297 3.0 5.0 0.00 0.00 0.00 31 1023.6
20260502042103 49 317 3.0 5.0 0.00 0.00 0.00 32 1023.5
20260502042012 49 319 3.0 5.0 0.00 0.00 0.00 32 1023.5
20260502041803 50 319 3.0 5.0 0.00 0.00 0.00 32 1023.5
20260502041745 50 319 3.0 5.0 0.00 0.00 0.00 32 1023.5
20260502041701 49 319 3.0 5.0 0.00 0.00 0.00 32 1023.5
20260502041603 50 319 3.0 5.0 0.00 0.00 0.00 32 1023.6
20260502041500 49 319 3.0 5.0 0.00 0.00 0.00 31 1023.5
20260502041400 49 319 3.0 5.0 0.00 0.00 0.00 31 1023.5
20260502041257 49 319 3.0 5.0 0.00 0.00 0.00 31 1023.4
20260502041245 49 319 3.0 5.0 0.00 0.00 0.00 31 1023.5
20260502041157 49 319 3.0 5.0 0.00 0.00 0.00 32 1023.5
20260502040949 49 319 3.0 5.0 0.00 0.00 0.00 32 1023.5
20260502040855 49 319 3.0 5.0 0.00 0.00 0.00 31 1023.4
20260502040847 49 319 3.0 5.0 0.00 0.00 0.00 31 1023.4
20260502040650 49 319 3.0 5.0 0.00 0.00 0.00 32 1023.4
20260502040448 49 319 3.0 5.0 0.00 0.00 0.00 32 1023.4
20260502040241 49 319 3.0 5.0 0.00 0.00 0.00 32 1023.4
20260502040141 49 331 2.0 5.0 0.00 0.00 0.00 33 1023.4
20260502040045 49 311 2.0 4.0 0.00 0.00 0.00 33 1023.2
20260502035850 49 311 2.0 4.0 0.00 0.00 0.00 32 1023.2
20260502035736 49 320 2.0 4.0 0.00 0.00 0.00 32 1023.2
20260502035635 49 323 2.0 4.0 0.00 0.00 0.00 32 1023.2
20260502035530 49 344 2.0 5.0 0.00 0.00 0.00 31 1023.2
20260502035431 50 346 3.0 5.0 0.00 0.00 0.00 31 1023.1
20260502035330 50 317 3.0 5.0 0.00 0.00 0.00 31 1023.2
20260502035230 50 317 3.0 5.0 0.00 0.00 0.00 31 1023.2
20260502035127 50 317 3.0 5.0 0.00 0.00 0.00 31 1023.2
20260502035028 50 317 3.0 5.0 0.00 0.00 0.00 31 1023.1
20260502034925 50 317 3.0 5.0 0.00 0.00 0.00 31 1023.1
20260502034824 50 317 3.0 5.0 0.00 0.00 0.00 31 1023.1
20260502034722 49 317 3.0 5.0 0.00 0.00 0.00 31 1023.1
20260502034619 49 317 3.0 5.0 0.00 0.00 0.00 32 1023.1
20260502034513 49 317 2.0 5.0 0.00 0.00 0.00 32 1023.1
20260502034420 49 317 2.0 5.0 0.00 0.00 0.00 32 1023.1
20260502034239 49 317 2.0 4.0 0.00 0.00 0.00 32 1023.1
20260502034211 49 317 2.0 4.0 0.00 0.00 0.00 33 1023.1
20260502034109 49 317 2.0 4.0 0.00 0.00 0.00 33 1023.0
20260502034005 49 317 2.0 4.0 0.00 0.00 0.00 33 1023.0
20260502033906 49 317 2.0 4.0 0.00 0.00 0.00 32 1023.0
20260502033806 49 317 2.0 4.0 0.00 0.00 0.00 32 1023.0
20260502033706 49 317 2.0 4.0 0.00 0.00 0.00 32 1022.9
20260502033603 49 317 2.0 4.0 0.00 0.00 0.00 31 1023.0
20260502033459 49 317 2.0 4.0 0.00 0.00 0.00 31 1022.9
20260502033357 49 317 2.0 3.0 0.00 0.00 0.00 32 1022.9
20260502033343 49 317 2.0 4.0 0.00 0.00 0.00 32 1022.9
20260502033157 49 317 2.0 4.0 0.00 0.00 0.00 32 1022.9
20260502033056 49 317 2.0 4.0 0.00 0.00 0.00 32 1022.9
20260502032952 49 317 2.0 4.0 0.00 0.00 0.00 32 1022.9
20260502032852 49 317 2.0 4.0 0.00 0.00 0.00 32 1022.8
20260502032756 49 317 2.0 4.0 0.00 0.00 0.00 32 1022.9
20260502032549 49 317 2.0 4.0 0.00 0.00 0.00 33 1022.8
20260502032446 49 317 2.0 4.0 0.00 0.00 0.00 33 1022.8
20260502032345 49 317 2.0 4.0 0.00 0.00 0.00 33 1022.8
20260502032223 49 317 2.0 4.0 0.00 0.00 0.00 33 1022.8
20260502032146 49 317 1.0 4.0 0.00 0.00 0.00 33 1022.8
20260502032043 49 317 1.0 4.0 0.00 0.00 0.00 33 1022.6
20260502031941 49 317 1.0 4.0 0.00 0.00 0.00 33 1022.6
20260502031839 49 317 1.0 3.0 0.00 0.00 0.00 34 1022.6
20260502031739 49 317 1.0 3.0 0.00 0.00 0.00 33 1022.6
20260502031717 49 317 1.0 3.0 0.00 0.00 0.00 34 1022.6
20260502031639 49 317 1.0 3.0 0.00 0.00 0.00 34 1022.6
20260502031537 49 317 1.0 3.0 0.00 0.00 0.00 34 1022.6
20260502031439 49 317 1.0 3.0 0.00 0.00 0.00 35 1022.6
20260502031335 49 317 1.0 4.0 0.00 0.00 0.00 34 1022.6
20260502031211 49 317 1.0 4.0 0.00 0.00 0.00 34 1022.6
20260502031133 49 317 1.0 4.0 0.00 0.00 0.00 34 1022.6
20260502031032 49 317 1.0 4.0 0.00 0.00 0.00 35 1022.6
20260502030937 49 317 2.0 4.0 0.00 0.00 0.00 34 1022.6
20260502030705 49 317 2.0 4.0 0.00 0.00 0.00 35 1022.6
20260502030628 49 317 2.0 4.0 0.00 0.00 0.00 35 1022.5
20260502030525 49 317 2.0 4.0 0.00 0.00 0.00 35 1022.5
20260502030426 49 317 2.0 4.0 0.00 0.00 0.00 35 1022.5
20260502030328 49 317 2.0 4.0 0.00 0.00 0.00 34 1022.6
20260502030159 49 317 2.0 4.0 0.00 0.00 0.00 34 1022.5
20260502030123 49 317 1.0 4.0 0.00 0.00 0.00 34 1022.5
20260502030019 49 317 1.0 4.0 0.00 0.00 0.00 33 1022.5
20260502025917 49 338 1.0 4.0 0.00 0.00 0.00 33 1022.5
20260502025838 49 288 1.0 4.0 0.00 0.00 0.00 33 1022.5
20260502025831 49 288 1.0 4.0 0.00 0.00 0.00 33 1022.4
20260502025414 49 303 0.0 3.0 0.00 0.00 0.00 32 1022.4
20260502025313 49 275 0.0 2.0 0.00 0.00 0.00 32 1022.4
20260502025212 49 275 0.0 2.0 0.00 0.00 0.00 32 1022.4
20260502025147 49 275 0.0 2.0 0.00 0.00 0.00 31 1022.4
20260502025109 49 275 0.0 1.0 0.00 0.00 0.00 31 1022.4
20260502025008 50 275 0.0 1.0 0.00 0.00 0.00 31 1022.3
20260502024907 50 275 0.0 1.0 0.00 0.00 0.00 31 1022.3
20260502024806 50 275 0.0 2.0 0.00 0.00 0.00 31 1022.3
20260502024707 50 275 0.0 2.0 0.00 0.00 0.00 31 1022.3
20260502024641 50 275 0.0 2.0 0.00 0.00 0.00 31 1022.3
20260502024604 50 275 0.0 2.0 0.00 0.00 0.00 31 1022.3
20260502024501 50 275 0.0 2.0 0.00 0.00 0.00 31 1022.3
20260502024359 50 275 0.0 2.0 0.00 0.00 0.00 30 1022.3
20260502024256 50 275 0.0 2.0 0.00 0.00 0.00 30 1022.3
20260502024156 50 275 0.0 2.0 0.00 0.00 0.00 30 1022.3
20260502024135 50 275 0.0 2.0 0.00 0.00 0.00 30 1022.2
20260502024056 50 275 0.0 3.0 0.00 0.00 0.00 30 1022.2
20260502023955 51 275 1.0 3.0 0.00 0.00 0.00 30 1022.2
20260502023850 51 275 1.0 3.0 0.00 0.00 0.00 30 1022.2
20260502023750 51 275 1.0 3.0 0.00 0.00 0.00 30 1022.2
20260502023633 51 275 1.0 3.0 0.00 0.00 0.00 29 1022.2
20260502023550 51 275 2.0 4.0 0.00 0.00 0.00 30 1022.0
20260502023449 51 275 2.0 4.0 0.00 0.00 0.00 29 1022.2
20260502023354 51 275 2.0 4.0 0.00 0.00 0.00 29 1022.0
20260502023150 51 275 2.0 4.0 0.00 0.00 0.00 29 1022.0
20260502022943 51 280 2.0 4.0 0.00 0.00 0.00 29 1022.0
20260502022842 51 280 2.0 4.0 0.00 0.00 0.00 29 1022.0
20260502022747 51 269 1.0 4.0 0.00 0.00 0.00 29 1022.0
20260502022740 51 269 1.0 4.0 0.00 0.00 0.00 29 1022.0
20260502022538 51 335 1.0 3.0 0.00 0.00 0.00 29 1021.9
20260502022437 51 335 1.0 2.0 0.00 0.00 0.00 29 1021.9
20260502022334 51 335 1.0 3.0 0.00 0.00 0.00 29 1021.9
20260502022232 51 335 1.0 3.0 0.00 0.00 0.00 28 1021.9
20260502022132 51 335 1.0 3.0 0.00 0.00 0.00 28 1022.0
20260502022032 51 335 1.0 3.0 0.00 0.00 0.00 28 1021.9
20260502021932 51 335 1.0 3.0 0.00 0.00 0.00 28 1021.9
20260502021829 51 335 1.0 3.0 0.00 0.00 0.00 27 1021.9
20260502021730 51 335 1.0 3.0 0.00 0.00 0.00 28 1021.9
20260502021631 51 335 1.0 3.0 0.00 0.00 0.00 27 1021.9
20260502021533 52 335 1.0 3.0 0.00 0.00 0.00 27 1021.9
20260502021324 52 335 1.0 3.0 0.00 0.00 0.00 27 1021.9
20260502021224 52 335 1.0 3.0 0.00 0.00 0.00 27 1021.9
20260502021122 52 335 1.0 3.0 0.00 0.00 0.00 26 1021.9
20260502021022 52 335 1.0 3.0 0.00 0.00 0.00 27 1021.9
20260502020919 52 335 1.0 3.0 0.00 0.00 0.00 26 1021.8
20260502020815 52 335 1.0 3.0 0.00 0.00 0.00 27 1021.8
20260502020714 53 335 1.0 3.0 0.00 0.00 0.00 27 1021.9
20260502020614 53 335 1.0 3.0 0.00 0.00 0.00 27 1021.8
20260502020514 53 335 1.0 3.0 0.00 0.00 0.00 27 1021.8
20260502020413 53 335 1.0 3.0 0.00 0.00 0.00 27 1021.8
20260502020316 53 335 1.0 3.0 0.00 0.00 0.00 26 1021.8
20260502020111 53 335 1.0 3.0 0.00 0.00 0.00 26 1021.8
20260502020009 53 335 1.0 3.0 0.00 0.00 0.00 26 1021.8
20260502015908 53 335 0.0 3.0 0.00 0.00 0.00 26 1021.8
20260502015808 53 335 0.0 2.0 0.00 0.00 0.00 26 1021.7
20260502015706 53 335 0.0 2.0 0.00 0.00 0.00 26 1021.8
20260502015625 54 335 0.0 3.0 0.00 0.00 0.00 26 1021.8
20260502015606 54 335 0.0 3.0 0.00 0.00 0.00 25 1021.8
20260502015508 54 335 1.0 3.0 0.00 0.00 0.00 26 1021.7
20260502015259 54 335 1.0 3.0 0.00 0.00 0.00 26 1021.7
20260502015157 54 335 1.0 3.0 0.00 0.00 0.00 26 1021.7
20260502015125 54 335 1.0 3.0 0.00 0.00 0.00 26 1021.7
20260502015056 54 335 1.0 4.0 0.00 0.00 0.00 26 1021.7
20260502014956 54 335 1.0 4.0 0.00 0.00 0.00 26 1021.6
20260502014857 55 335 1.0 4.0 0.00 0.00 0.00 25 1021.7
20260502014623 55 335 1.0 4.0 0.00 0.00 0.00 25 1021.6
20260502014551 55 335 1.0 4.0 0.00 0.00 0.00 26 1021.6
20260502014457 55 335 1.0 4.0 0.00 0.00 0.00 26 1021.6
20260502014248 55 335 2.0 4.0 0.00 0.00 0.00 25 1021.5
20260502014123 55 335 2.0 4.0 0.00 0.00 0.00 24 1021.5
20260502014048 55 335 2.0 5.0 0.00 0.00 0.00 24 1021.5
20260502013950 55 330 2.0 5.0 0.00 0.00 0.00 23 1021.3
20260502013744 55 330 2.0 5.0 0.00 0.00 0.00 24 1021.3
20260502013623 56 330 2.0 5.0 0.00 0.00 0.00 24 1021.3
20260502013545 56 330 2.0 5.0 0.00 0.00 0.00 24 1021.3
20260502013359 56 335 3.0 5.0 0.00 0.00 0.00 24 1021.3
20260502013351 56 336 3.0 5.0 0.00 0.00 0.00 23 1021.3
20260502012932 56 335 3.0 5.0 0.00 0.00 0.00 23 1021.2
20260502012831 56 332 3.0 5.0 0.00 0.00 0.00 23 1021.3
20260502012731 56 311 3.0 5.0 0.00 0.00 0.00 23 1021.3
20260502012621 56 311 3.0 5.0 0.00 0.00 0.00 23 1021.3
20260502012530 56 311 3.0 5.0 0.00 0.00 0.00 22 1021.3
20260502012428 56 311 3.0 5.0 0.00 0.00 0.00 22 1021.2
20260502012339 56 311 2.0 5.0 0.00 0.00 0.00 23 1021.3
20260502012224 57 310 2.0 5.0 0.00 0.00 0.00 23 1021.2
20260502012020 57 24 1.0 4.0 0.00 0.00 0.00 23 1021.2
20260502011920 57 38 1.0 4.0 0.00 0.00 0.00 23 1021.2
20260502011819 57 44 2.0 4.0 0.00 0.00 0.00 23 1021.2
20260502011715 57 23 2.0 4.0 0.00 0.00 0.00 22 1021.2
20260502011621 57 18 2.0 4.0 0.00 0.00 0.00 22 1021.2
20260502011614 57 21 2.0 4.0 0.00 0.00 0.00 23 1021.2
20260502011520 57 18 2.0 4.0 0.00 0.00 0.00 23 1021.1
20260502011319 58 335 1.0 4.0 0.00 0.00 0.00 22 1021.1
20260502011113 58 335 2.0 6.0 0.00 0.00 0.00 21 1021.1
20260502011008 58 335 2.0 6.0 0.00 0.00 0.00 21 1021.1
20260502010908 58 335 2.0 6.0 0.00 0.00 0.00 22 1021.1
20260502010812 58 335 2.0 6.0 0.00 0.00 0.00 21 1021.1
20260502010621 58 335 2.0 6.0 0.00 0.00 0.00 21 1021.1
20260502010604 58 335 2.0 6.0 0.00 0.00 0.00 22 1021.1
20260502010514 58 335 2.0 6.0 0.00 0.00 0.00 22 1021.1
20260502010155 59 321 3.0 6.0 0.00 0.00 0.00 21 1021.1
20260502010114 59 321 3.0 6.0 0.00 0.00 0.00 20 1021.1
20260502010054 59 320 3.0 6.0 0.00 0.00 0.00 21 1021.1
20260502005953 59 345 3.0 6.0 0.00 0.00 0.00 22 1021.0
20260502005854 59 345 4.0 11.0 0.00 0.00 0.00 21 1021.0
20260502005753 59 26 4.0 11.0 0.00 0.00 0.00 21 1021.0
20260502005648 59 26 4.0 11.0 0.00 0.00 0.00 20 1021.0
20260502005610 59 16 4.0 11.0 0.00 0.00 0.00 20 1021.0
20260502005549 59 9 5.0 11.0 0.00 0.00 0.00 20 1021.0
20260502005454 59 326 5.0 11.0 0.00 0.00 0.00 20 1021.0
20260502005317 60 0 5.0 11.0 0.00 0.00 0.00 19 1021.0
20260502005055 60 355 5.0 11.0 0.00 0.00 0.00 19 1021.0
20260502004742 61 325 4.0 9.0 0.00 0.00 0.00 19 1021.1
20260502004641 61 307 5.0 10.0 0.00 0.00 0.00 19 1021.0
20260502004557 61 306 5.0 13.0 0.00 0.00 0.00 19 1021.0
20260502004539 61 293 5.0 13.0 0.00 0.00 0.00 19 1021.0
20260502004439 61 327 5.0 13.0 0.00 0.00 0.00 19 1021.0
20260502004338 61 344 6.0 13.0 0.00 0.00 0.00 19 1021.0
20260502004235 61 38 6.0 13.0 0.00 0.00 0.00 19 1020.9
20260502004132 61 5 6.0 13.0 0.00 0.00 0.00 20 1021.0
20260502004051 61 313 6.0 13.0 0.00 0.00 0.00 21 1021.0
20260502004031 61 349 6.0 13.0 0.00 0.00 0.00 21 1021.0
20260502003930 61 339 7.0 13.0 0.00 0.00 0.00 20 1021.0
20260502003830 61 13 6.0 13.0 0.00 0.00 0.00 21 1021.0
20260502003730 61 5 7.0 13.0 0.00 0.00 0.00 21 1021.0
20260502003545 61 32 6.0 12.0 0.00 0.00 0.00 20 1021.0
20260502003533 61 63 6.0 12.0 0.00 0.00 0.00 20 1021.0
20260502003324 61 0 6.0 12.0 0.00 0.00 0.00 19 1021.0
20260502003225 61 40 5.0 12.0 0.00 0.00 0.00 19 1020.9
20260502003039 62 346 4.0 11.0 0.00 0.00 0.00 19 1020.9
20260502003018 62 0 4.0 11.0 0.00 0.00 0.00 19 1020.9
20260502002925 62 22 4.0 11.0 0.00 0.00 0.00 20 1020.9
20260502002717 61 340 3.0 11.0 0.00 0.00 0.00 21 1020.9
20260502002612 61 321 2.0 11.0 0.00 0.00 0.00 21 1021.0
20260502002532 61 0 2.0 7.0 0.00 0.00 0.00 20 1021.0
20260502002511 61 325 2.0 7.0 0.00 0.00 0.00 20 1021.0
20260502002420 60 15 2.0 7.0 0.00 0.00 0.00 21 1021.0
20260502002212 60 5 3.0 9.0 0.00 0.00 0.00 21 1021.0
20260502002118 60 101 4.0 11.0 0.00 0.00 0.00 20 1021.0
20260502002111 60 101 5.0 13.0 0.00 0.00 0.00 20 1021.0
20260502001906 60 107 5.0 13.0 0.00 0.00 0.00 20 1021.0
20260502001805 60 107 6.0 13.0 0.00 0.00 0.00 21 1021.0
20260502001705 60 107 6.0 13.0 0.00 0.00 0.00 20 1021.0
20260502001601 60 80 7.0 13.0 0.00 0.00 0.00 20 1021.0
20260502001521 60 85 7.0 13.0 0.00 0.00 0.00 19 1021.0
20260502001501 60 80 7.0 13.0 0.00 0.00 0.00 19 1021.0
20260502001400 60 90 7.0 13.0 0.00 0.00 0.00 20 1020.9
20260502001300 60 84 7.0 13.0 0.00 0.00 0.00 20 1021.0
20260502001159 60 84 6.0 13.0 0.00 0.00 0.00 19 1021.0
20260502001053 60 80 6.0 11.0 0.00 0.00 0.00 20 1021.0
20260502001014 60 64 6.0 11.0 0.00 0.00 0.00 19 1021.0
20260502000954 60 59 6.0 11.0 0.00 0.00 0.00 19 1021.0
20260502000853 60 53 6.0 10.0 0.00 0.00 0.00 19 1021.0
20260502000754 60 46 6.0 11.0 0.00 0.00 0.00 19 1021.0
20260502000653 60 66 5.0 11.0 0.00 0.00 0.00 19 1020.9
20260502000549 60 67 6.0 11.0 0.00 0.00 0.00 19 1021.0
20260502000510 60 69 6.0 11.0 0.00 0.00 0.00 19 1021.0
20260502000450 60 77 6.0 11.0 0.00 0.00 0.00 19 1021.0
20260502000349 60 63 6.0 11.0 0.00 0.00 0.00 19 1020.9
20260502000250 60 48 5.0 11.0 0.00 0.00 0.00 20 1020.9
20260502000147 60 63 5.0 11.0 0.00 0.00 0.00 20 1021.0
20260502000044 61 54 5.0 11.0 0.00 0.00 0.00 20 1021.0
20260502000002 61 79 5.0 11.0 0.00 0.00 0.00 19 1021.0
20260501235948 61 82 4.0 11.0 0.00 0.00 0.00 19 1020.9
20260501235742 61 30 3.0 11.0 0.00 0.00 0.00 20 1020.9
20260501235641 61 67 3.0 10.0 0.00 0.00 0.00 20 1020.9
20260501235537 61 49 2.0 10.0 0.00 0.00 0.00 19 1021.0
20260501235457 61 61 2.0 8.0 0.00 0.00 0.00 20 1021.0
20260501235438 61 39 2.0 8.0 0.00 0.00 0.00 20 1020.9
20260501235337 61 31 2.0 8.0 0.00 0.00 0.00 21 1020.9
20260501235242 61 27 2.0 10.0 0.00 0.00 0.00 20 1020.9
20260501235030 61 89 3.0 10.0 0.00 0.00 0.00 20 1020.9
20260501234930 61 89 3.0 10.0 0.00 0.00 0.00 18 1020.9
20260501234829 61 89 3.0 10.0 0.00 0.00 0.00 18 1020.9
20260501234729 61 89 3.0 10.0 0.00 0.00 0.00 18 1020.7
20260501234631 61 89 3.0 10.0 0.00 0.00 0.00 19 1020.9
20260501234526 61 89 3.0 10.0 0.00 0.00 0.00 19 1020.9
20260501234445 61 103 3.0 10.0 0.00 0.00 0.00 19 1020.9
20260501234425 61 56 3.0 10.0 0.00 0.00 0.00 19 1020.9
20260501234326 61 44 2.0 10.0 0.00 0.00 0.00 20 1020.9
20260501234225 61 82 2.0 9.0 0.00 0.00 0.00 20 1020.9
20260501234123 61 26 2.0 9.0 0.00 0.00 0.00 20 1020.9
20260501234019 61 38 2.0 9.0 0.00 0.00 0.00 20 1020.9
20260501233939 61 77 2.0 9.0 0.00 0.00 0.00 20 1020.9
20260501233924 61 97 2.0 6.0 0.00 0.00 0.00 20 1020.9
20260501233717 60 19 3.0 9.0 0.00 0.00 0.00 21 1020.9
20260501233629 60 19 4.0 11.0 0.00 0.00 0.00 21 1020.9
20260501233623 60 342 4.0 11.0 0.00 0.00 0.00 21 1020.9
20260501233312 60 348 5.0 11.0 0.00 0.00 0.00 20 1020.9
20260501233211 60 76 5.0 11.0 0.00 0.00 0.00 20 1020.9
20260501233116 60 46 5.0 11.0 0.00 0.00 0.00 20 1020.9
20260501232927 61 44 6.0 11.0 0.00 0.00 0.00 21 1020.9
20260501232910 61 45 6.0 11.0 0.00 0.00 0.00 21 1020.9
20260501232811 61 349 6.0 11.0 0.00 0.00 0.00 19 1020.7
20260501232707 61 61 6.0 11.0 0.00 0.00 0.00 20 1020.9
20260501232606 61 56 6.0 11.0 0.00 0.00 0.00 20 1020.9
20260501232511 61 42 6.0 11.0 0.00 0.00 0.00 19 1020.9
20260501232504 61 42 6.0 11.0 0.00 0.00 0.00 21 1020.9
20260501232300 61 28 6.0 12.0 0.00 0.00 0.00 20 1020.9
20260501232159 61 298 7.0 12.0 0.00 0.00 0.00 20 1020.9
20260501232101 61 306 7.0 12.0 0.00 0.00 0.00 19 1020.9
20260501231954 61 294 7.0 12.0 0.00 0.00 0.00 19 1020.7
20260501231915 62 271 7.0 12.0 0.00 0.00 0.00 19 1020.9
20260501231853 62 314 7.0 13.0 0.00 0.00 0.00 19 1020.7
20260501231754 62 328 7.0 13.0 0.00 0.00 0.00 19 1020.7
20260501231655 62 333 7.0 13.0 0.00 0.00 0.00 19 1020.7
20260501231557 62 38 9.0 16.0 0.00 0.00 0.00 20 1020.7
20260501231409 62 50 8.0 23.0 0.00 0.00 0.00 20 1020.7
20260501231348 62 349 8.0 23.0 0.00 0.00 0.00 20 1020.7
20260501231249 62 327 7.0 23.0 0.00 0.00 0.00 19 1020.7
20260501231154 62 314 7.0 23.0 0.00 0.00 0.00 19 1020.7
20260501230942 62 320 6.0 23.0 0.00 0.00 0.00 19 1020.7
20260501230903 62 316 6.0 23.0 0.00 0.00 0.00 19 1020.7
20260501230841 62 317 6.0 23.0 0.00 0.00 0.00 19 1020.7
20260501230742 62 313 5.0 23.0 0.00 0.00 0.00 20 1020.7
20260501230642 62 295 4.0 23.0 0.00 0.00 0.00 20 1020.5
20260501230541 62 342 4.0 23.0 0.00 0.00 0.00 20 1020.5
20260501230437 62 79 3.0 10.0 0.00 0.00 0.00 20 1020.6
20260501230357 62 65 3.0 10.0 0.00 0.00 0.00 20 1020.6
20260501230346 62 87 3.0 10.0 0.00 0.00 0.00 20 1020.7
20260501230137 62 161 4.0 10.0 0.00 0.00 0.00 19 1020.7
20260501230035 62 161 5.0 13.0 0.00 0.00 0.00 20 1020.6
20260501225936 62 161 5.0 13.0 0.00 0.00 0.00 21 1020.6
20260501225850 61 213 6.0 16.0 0.00 0.00 0.00 21 1020.7
20260501225833 61 194 6.0 16.0 0.00 0.00 0.00 21 1020.7
20260501225731 61 149 6.0 16.0 0.00 0.00 0.00 20 1020.7
20260501225632 61 56 6.0 16.0 0.00 0.00 0.00 20 1020.9
20260501225536 61 76 6.0 16.0 0.00 0.00 0.00 20 1020.9
20260501225328 61 82 6.0 16.0 0.00 0.00 0.00 20 1020.9
20260501225228 61 70 6.0 16.0 0.00 0.00 0.00 20 1020.9
20260501225125 61 72 6.0 16.0 0.00 0.00 0.00 20 1020.9
20260501225025 61 68 6.0 16.0 0.00 0.00 0.00 20 1020.9
20260501224921 62 46 5.0 16.0 0.00 0.00 0.00 20 1020.9
20260501224838 62 26 5.0 11.0 0.00 0.00 0.00 20 1020.9
20260501224830 62 47 5.0 11.0 0.00 0.00 0.00 20 1020.9
20260501224620 62 338 6.0 13.0 0.00 0.00 0.00 22 1020.9
20260501224517 62 355 6.0 16.0 0.00 0.00 0.00 21 1020.9
20260501224439 62 14 7.0 16.0 0.00 0.00 0.00 22 1020.9
20260501224316 62 323 7.0 16.0 0.00 0.00 0.00 21 1020.9
20260501224213 62 267 7.0 16.0 0.00 0.00 0.00 20 1020.9
20260501224118 62 24 8.0 16.0 0.00 0.00 0.00 21 1020.9
20260501223907 62 32 8.0 17.0 0.00 0.00 0.00 21 1020.9
20260501223826 62 343 9.0 17.0 0.00 0.00 0.00 21 1020.9
20260501223806 62 313 9.0 17.0 0.00 0.00 0.00 21 1020.9
20260501223706 62 33 9.0 17.0 0.00 0.00 0.00 20 1020.9
20260501223606 62 42 8.0 17.0 0.00 0.00 0.00 21 1020.9
20260501223505 62 5 8.0 17.0 0.00 0.00 0.00 21 1020.9
20260501223400 62 325 8.0 17.0 0.00 0.00 0.00 21 1020.9
20260501223321 62 316 8.0 17.0 0.00 0.00 0.00 21 1020.7
20260501223307 62 332 8.0 17.0 0.00 0.00 0.00 20 1020.7
20260501223059 63 47 7.0 17.0 0.00 0.00 0.00 21 1020.9
20260501223000 63 48 7.0 16.0 0.00 0.00 0.00 21 1020.7
20260501222815 63 26 7.0 14.0 0.00 0.00 0.00 21 1020.7
20260501222802 63 32 7.0 14.0 0.00 0.00 0.00 22 1020.7
20260501222554 63 67 7.0 14.0 0.00 0.00 0.00 20 1020.7
20260501222453 63 40 6.0 14.0 0.00 0.00 0.00 21 1020.7
20260501222347 63 38 6.0 13.0 0.00 0.00 0.00 22 1020.7
20260501222309 63 42 6.0 13.0 0.00 0.00 0.00 22 1020.7
20260501222255 63 332 6.0 13.0 0.00 0.00 0.00 23 1020.7
20260501222047 63 355 6.0 13.0 0.00 0.00 0.00 21 1020.9
20260501221948 64 24 5.0 12.0 0.00 0.00 0.00 21 1020.7
20260501221843 64 355 5.0 11.0 0.00 0.00 0.00 21 1020.7
20260501221803 64 31 5.0 11.0 0.00 0.00 0.00 21 1020.7
20260501221743 64 71 5.0 11.0 0.00 0.00 0.00 21 1020.7
20260501221644 64 24 5.0 11.0 0.00 0.00 0.00 22 1020.7
20260501221543 63 54 5.0 11.0 0.00 0.00 0.00 23 1020.7
20260501221444 63 40 5.0 11.0 0.00 0.00 0.00 21 1020.7
20260501221257 63 59 4.0 11.0 0.00 0.00 0.00 22 1020.7
20260501221236 63 86 4.0 11.0 0.00 0.00 0.00 21 1020.7
20260501221137 63 45 4.0 11.0 0.00 0.00 0.00 22 1020.7
20260501221036 63 90 4.0 11.0 0.00 0.00 0.00 21 1020.7
20260501220935 62 71 5.0 11.0 0.00 0.00 0.00 21 1020.7
20260501220857 62 115 5.0 11.0 0.00 0.00 0.00 22 1020.7
20260501220729 62 94 4.0 11.0 0.00 0.00 0.00 21 1020.7
20260501220629 62 60 4.0 10.0 0.00 0.00 0.00 19 1020.7
20260501220530 63 167 4.0 10.0 0.00 0.00 0.00 20 1020.9
20260501220429 63 53 4.0 10.0 0.00 0.00 0.00 20 1020.7
20260501220324 63 5 5.0 10.0 0.00 0.00 0.00 19 1020.7
20260501220245 63 355 5.0 10.0 0.00 0.00 0.00 19 1020.7
20260501220230 63 67 5.0 10.0 0.00 0.00 0.00 19 1020.7
20260501220023 63 96 5.0 10.0 0.00 0.00 0.00 20 1020.9
20260501215923 63 98 5.0 11.0 0.00 0.00 0.00 21 1020.9
20260501215822 62 105 5.0 11.0 0.00 0.00 0.00 20 1020.9
20260501215739 62 146 6.0 11.0 0.00 0.00 0.00 21 1020.9
20260501215722 62 145 6.0 11.0 0.00 0.00 0.00 21 1020.9
20260501215631 62 146 7.0 18.0 0.00 0.00 0.00 21 1020.9
20260501215313 62 100 8.0 18.0 0.00 0.00 0.00 21 1021.0
20260501215233 62 119 8.0 18.0 0.00 0.00 0.00 21 1021.0
20260501215212 62 82 8.0 18.0 0.00 0.00 0.00 21 1021.0
20260501215112 62 102 7.0 18.0 0.00 0.00 0.00 22 1021.0
20260501215013 62 33 7.0 18.0 0.00 0.00 0.00 21 1021.0
20260501214924 62 115 7.0 18.0 0.00 0.00 0.00 21 1021.0
20260501214810 62 50 7.0 18.0 0.00 0.00 0.00 21 1021.0
20260501214606 62 58 7.0 16.0 0.00 0.00 0.00 20 1021.0
20260501214512 62 44 6.0 16.0 0.00 0.00 0.00 21 1021.0
20260501214313 62 70 6.0 15.0 0.00 0.00 0.00 22 1021.0
20260501214306 62 90 6.0 15.0 0.00 0.00 0.00 22 1021.1
20260501214102 62 9 6.0 15.0 0.00 0.00 0.00 21 1021.1
20260501214001 62 48 7.0 15.0 0.00 0.00 0.00 21 1021.1
20260501213900 62 26 7.0 15.0 0.00 0.00 0.00 21 1021.1
20260501213804 62 61 7.0 15.0 0.00 0.00 0.00 22 1021.1
20260501213757 62 55 7.0 15.0 0.00 0.00 0.00 22 1021.1
20260501213553 62 45 7.0 15.0 0.00 0.00 0.00 22 1021.1
20260501213454 62 38 7.0 14.0 0.00 0.00 0.00 22 1021.1
20260501213353 62 297 7.0 15.0 0.00 0.00 0.00 23 1021.1
20260501213338 62 23 7.0 15.0 0.00 0.00 0.00 23 1021.2
20260501213147 62 45 7.0 15.0 0.00 0.00 0.00 24 1021.2
20260501213048 62 30 7.0 15.0 0.00 0.00 0.00 22 1021.2
20260501212947 62 21 6.0 15.0 0.00 0.00 0.00 23 1021.1
20260501212847 62 61 6.0 15.0 0.00 0.00 0.00 25 1021.1
20260501212741 62 0 6.0 15.0 0.00 0.00 0.00 24 1021.1
20260501212730 62 5 6.0 15.0 0.00 0.00 0.00 24 1021.1
20260501212641 62 5 6.0 15.0 0.00 0.00 0.00 24 1021.1
20260501212542 62 5 6.0 15.0 0.00 0.00 0.00 22 1021.2
20260501212441 62 53 6.0 15.0 0.00 0.00 0.00 22 1021.1
20260501212341 62 35 6.0 13.0 0.00 0.00 0.00 23 1021.1
20260501212240 62 83 6.0 13.0 0.00 0.00 0.00 23 1021.1
20260501212231 62 102 6.0 13.0 0.00 0.00 0.00 23 1021.1
20260501212135 62 133 6.0 13.0 0.00 0.00 0.00 21 1021.2
20260501212044 62 95 5.0 13.0 0.00 0.00 0.00 21 1021.1
20260501211836 62 140 5.0 13.0 0.00 0.00 0.00 21 1021.2
20260501211734 62 97 6.0 12.0 0.00 0.00 0.00 22 1021.2
20260501211729 62 78 6.0 12.0 0.00 0.00 0.00 22 1021.2
20260501211629 62 69 6.0 12.0 0.00 0.00 0.00 22 1021.2
20260501211529 62 46 6.0 12.0 0.00 0.00 0.00 21 1021.2
20260501211437 62 60 5.0 12.0 0.00 0.00 0.00 22 1021.2
20260501211231 62 77 5.0 11.0 0.00 0.00 0.00 23 1021.2
20260501211227 62 62 5.0 11.0 0.00 0.00 0.00 23 1021.2
20260501211128 62 9 5.0 11.0 0.00 0.00 0.00 24 1021.2
20260501211026 62 91 5.0 11.0 0.00 0.00 0.00 23 1021.1
20260501210925 62 60 6.0 11.0 0.00 0.00 0.00 21 1021.2
20260501210832 62 66 5.0 11.0 0.00 0.00 0.00 25 1021.2
20260501210823 62 74 5.0 11.0 0.00 0.00 0.00 24 1021.2
20260501210617 62 101 5.0 11.0 0.00 0.00 0.00 22 1021.3
20260501210518 61 93 5.0 11.0 0.00 0.00 0.00 23 1021.3
20260501210425 61 98 6.0 14.0 0.00 0.00 0.00 25 1021.3
20260501210232 61 105 6.0 14.0 0.00 0.00 0.00 22 1021.3
20260501210211 61 72 6.0 14.0 0.00 0.00 0.00 22 1021.3
20260501210111 61 53 6.0 14.0 0.00 0.00 0.00 21 1021.3
20260501210028 62 80 5.0 14.0 0.00 0.00 0.00 21 1021.3
20260501210022 62 69 5.0 14.0 0.00 0.00 0.00 22 1021.3
20260501205603 62 104 4.0 14.0 0.00 0.00 0.00 21 1021.3
20260501205510 63 75 3.0 14.0 0.00 0.00 0.00 22 1021.5
20260501205306 62 72 2.0 9.0 0.00 0.00 0.00 24 1021.3
20260501205231 62 103 2.0 7.0 0.00 0.00 0.00 24 1021.3
20260501205159 62 159 2.0 7.0 0.00 0.00 0.00 25 1021.3
20260501205113 62 171 2.0 7.0 0.00 0.00 0.00 25 1021.3
20260501204838 62 192 3.0 8.0 0.00 0.00 0.00 22 1021.3
20260501204653 62 164 5.0 10.0 0.00 0.00 0.00 23 1021.3
20260501204552 62 311 5.0 12.0 0.00 0.00 0.00 24 1021.5
20260501204505 62 331 5.0 18.0 0.00 0.00 0.00 25 1021.5
20260501204229 61 263 6.0 18.0 0.00 0.00 0.00 26 1021.3
20260501204150 61 112 6.0 18.0 0.00 0.00 0.00 25 1021.5
20260501204049 61 84 7.0 18.0 0.00 0.00 0.00 23 1021.5
20260501203949 61 124 7.0 18.0 0.00 0.00 0.00 24 1021.5
20260501203850 61 59 7.0 18.0 0.00 0.00 0.00 23 1021.5
20260501203750 62 70 7.0 18.0 0.00 0.00 0.00 22 1021.6
20260501203729 62 68 7.0 18.0 0.00 0.00 0.00 22 1021.6
20260501203649 62 60 6.0 18.0 0.00 0.00 0.00 23 1021.6
20260501203557 62 50 5.0 18.0 0.00 0.00 0.00 23 1021.5
20260501203349 62 106 5.0 15.0 0.00 0.00 0.00 22 1021.5
20260501203250 62 92 5.0 15.0 0.00 0.00 0.00 22 1021.5
20260501203228 62 65 5.0 15.0 0.00 0.00 0.00 24 1021.5
20260501203154 62 55 4.0 15.0 0.00 0.00 0.00 23 1021.5
20260501202948 62 64 3.0 10.0 0.00 0.00 0.00 24 1021.5
20260501202848 62 26 3.0 10.0 0.00 0.00 0.00 22 1021.5
20260501202747 62 40 2.0 9.0 0.00 0.00 0.00 22 1021.6
20260501202730 62 36 2.0 7.0 0.00 0.00 0.00 22 1021.6
20260501202654 62 122 2.0 7.0 0.00 0.00 0.00 22 1021.5
20260501202447 62 5 2.0 6.0 0.00 0.00 0.00 26 1021.6
20260501202352 61 309 3.0 8.0 0.00 0.00 0.00 25 1021.5
20260501202229 61 288 3.0 8.0 0.00 0.00 0.00 25 1021.6
20260501202146 61 277 3.0 8.0 0.00 0.00 0.00 23 1021.6
20260501202045 61 310 2.0 8.0 0.00 0.00 0.00 24 1021.5
20260501201950 61 279 3.0 8.0 0.00 0.00 0.00 26 1021.6
20260501201729 60 92 4.0 11.0 0.00 0.00 0.00 23 1021.6
20260501201643 60 78 4.0 11.0 0.00 0.00 0.00 24 1021.7
20260501201545 60 72 4.0 11.0 0.00 0.00 0.00 23 1021.7
20260501201443 60 80 5.0 11.0 0.00 0.00 0.00 24 1021.7
20260501201352 60 99 5.0 11.0 0.00 0.00 0.00 24 1021.7
20260501201229 60 107 5.0 12.0 0.00 0.00 0.00 25 1021.7
20260501201142 60 124 6.0 12.0 0.00 0.00 0.00 25 1021.7
20260501201040 60 121 7.0 14.0 0.00 0.00 0.00 25 1021.7
20260501200939 60 105 7.0 14.0 0.00 0.00 0.00 23 1021.7
20260501200857 60 51 7.0 14.0 0.00 0.00 0.00 23 1021.7
20260501200743 60 36 7.0 14.0 0.00 0.00 0.00 25 1021.7
20260501200537 60 76 7.0 14.0 0.00 0.00 0.00 24 1021.7
20260501200438 60 90 7.0 14.0 0.00 0.00 0.00 24 1021.7
20260501200338 60 87 8.0 14.0 0.00 0.00 0.00 24 1021.7
20260501200238 60 59 8.0 14.0 0.00 0.00 0.00 24 1021.7
20260501200227 60 60 8.0 14.0 0.00 0.00 0.00 24 1021.7
20260501200138 60 67 8.0 14.0 0.00 0.00 0.00 25 1021.7
20260501200037 60 26 8.0 15.0 0.00 0.00 0.00 25 1021.6
20260501195938 60 81 7.0 15.0 0.00 0.00 0.00 25 1021.7
20260501195840 60 100 8.0 15.0 0.00 0.00 0.00 25 1021.7
20260501195834 60 100 7.0 15.0 0.00 0.00 0.00 25 1021.7
20260501195638 60 57 7.0 15.0 0.00 0.00 0.00 25 1021.7
20260501195537 60 41 7.0 15.0 0.00 0.00 0.00 25 1021.6
20260501195438 60 13 7.0 15.0 0.00 0.00 0.00 24 1021.7
20260501195331 60 44 6.0 15.0 0.00 0.00 0.00 25 1021.7
20260501195235 61 34 6.0 15.0 0.00 0.00 0.00 24 1021.6
20260501195227 61 29 6.0 15.0 0.00 0.00 0.00 24 1021.6
20260501195131 61 62 6.0 15.0 0.00 0.00 0.00 25 1021.6
20260501195031 61 74 6.0 11.0 0.00 0.00 0.00 24 1021.6
20260501194931 61 65 6.0 11.0 0.00 0.00 0.00 23 1021.6
20260501194831 61 350 6.0 11.0 0.00 0.00 0.00 25 1021.6
20260501194727 61 11 6.0 11.0 0.00 0.00 0.00 23 1021.6
20260501194632 61 40 6.0 11.0 0.00 0.00 0.00 24 1021.6
20260501194532 61 82 6.0 11.0 0.00 0.00 0.00 24 1021.7
20260501194431 61 44 6.0 11.0 0.00 0.00 0.00 24 1021.6
20260501194329 61 114 6.0 13.0 0.00 0.00 0.00 22 1021.7
20260501194229 61 89 6.0 14.0 0.00 0.00 0.00 23 1021.7
20260501194132 61 115 6.0 14.0 0.00 0.00 0.00 24 1021.6
20260501193925 61 85 5.0 14.0 0.00 0.00 0.00 27 1021.6
20260501193825 61 86 5.0 14.0 0.00 0.00 0.00 25 1021.7
20260501193723 61 73 5.0 14.0 0.00 0.00 0.00 24 1021.7
20260501193619 61 46 5.0 14.0 0.00 0.00 0.00 26 1021.7
20260501193519 61 336 4.0 14.0 0.00 0.00 0.00 24 1021.7
20260501193420 61 51 4.0 14.0 0.00 0.00 0.00 25 1021.7
20260501193331 61 46 3.0 14.0 0.00 0.00 0.00 26 1021.7
20260501193220 60 345 3.0 12.0 0.00 0.00 0.00 28 1021.7
20260501193121 60 24 3.0 12.0 0.00 0.00 0.00 26 1021.7
20260501193020 60 10 3.0 12.0 0.00 0.00 0.00 24 1021.7
20260501192915 60 80 3.0 12.0 0.00 0.00 0.00 24 1021.7
20260501192815 60 41 3.0 12.0 0.00 0.00 0.00 26 1021.8
20260501192715 60 281 4.0 12.0 0.00 0.00 0.00 26 1021.7
20260501192615 60 281 4.0 12.0 0.00 0.00 0.00 24 1021.8
20260501192521 60 101 5.0 12.0 0.00 0.00 0.00 27 1021.7
20260501192324 60 80 5.0 12.0 0.00 0.00 0.00 24 1021.8
20260501192317 60 101 5.0 12.0 0.00 0.00 0.00 24 1021.8
20260501192113 60 76 5.0 12.0 0.00 0.00 0.00 24 1021.8
20260501192013 60 68 5.0 12.0 0.00 0.00 0.00 26 1021.8
20260501191913 60 44 5.0 12.0 0.00 0.00 0.00 27 1021.8
20260501191813 60 51 5.0 10.0 0.00 0.00 0.00 26 1021.8
20260501191718 59 57 4.0 10.0 0.00 0.00 0.00 26 1021.8
20260501191713 59 70 4.0 10.0 0.00 0.00 0.00 26 1021.8
20260501191613 59 33 4.0 10.0 0.00 0.00 0.00 27 1021.7
20260501191520 59 32 4.0 8.0 0.00 0.00 0.00 28 1021.8
20260501191325 59 318 4.0 8.0 0.00 0.00 0.00 25 1021.7
20260501191319 59 290 4.0 8.0 0.00 0.00 0.00 25 1021.8
20260501191113 59 317 4.0 10.0 0.00 0.00 0.00 29 1021.8
20260501191013 59 329 5.0 11.0 0.00 0.00 0.00 27 1021.8
20260501190914 59 26 6.0 13.0 0.00 0.00 0.00 26 1021.8
20260501190826 59 84 6.0 14.0 0.00 0.00 0.00 25 1021.8
20260501190714 59 105 6.0 14.0 0.00 0.00 0.00 29 1021.8
20260501190613 59 68 6.0 14.0 0.00 0.00 0.00 26 1021.8
20260501190513 59 80 6.0 14.0 0.00 0.00 0.00 26 1021.8
20260501190414 59 92 6.0 14.0 0.00 0.00 0.00 25 1021.8
20260501190326 59 88 7.0 14.0 0.00 0.00 0.00 27 1021.9
20260501190214 59 83 7.0 14.0 0.00 0.00 0.00 25 1021.9
20260501190120 59 89 7.0 14.0 0.00 0.00 0.00 24 1021.8
20260501185913 59 62 6.0 14.0 0.00 0.00 0.00 25 1021.8
20260501185813 59 46 6.0 11.0 0.00 0.00 0.00 28 1021.9
20260501185713 59 19 6.0 11.0 0.00 0.00 0.00 28 1021.8
20260501185614 59 92 6.0 11.0 0.00 0.00 0.00 28 1021.8
20260501185520 59 80 6.0 11.0 0.00 0.00 0.00 26 1021.9
20260501185325 59 45 5.0 11.0 0.00 0.00 0.00 26 1021.9
20260501185213 59 51 5.0 11.0 0.00 0.00 0.00 27 1021.9
20260501185115 59 67 4.0 11.0 0.00 0.00 0.00 27 1021.9
20260501185020 59 76 4.0 11.0 0.00 0.00 0.00 27 1021.9
20260501184814 60 46 4.0 11.0 0.00 0.00 0.00 27 1021.9
20260501184718 60 117 4.0 11.0 0.00 0.00 0.00 26 1021.9
20260501184713 60 107 4.0 11.0 0.00 0.00 0.00 26 1021.9
20260501184614 60 59 4.0 11.0 0.00 0.00 0.00 27 1021.9
20260501184513 60 70 4.0 11.0 0.00 0.00 0.00 26 1021.9
20260501184413 60 83 4.0 11.0 0.00 0.00 0.00 27 1021.9
20260501184326 60 334 4.0 11.0 0.00 0.00 0.00 27 1021.9
20260501184318 60 336 5.0 11.0 0.00 0.00 0.00 31 1021.9
20260501184113 59 15 5.0 11.0 0.00 0.00 0.00 31 1021.9
20260501184013 59 18 5.0 11.0 0.00 0.00 0.00 26 1021.9
20260501183914 59 313 5.0 11.0 0.00 0.00 0.00 26 1021.9
20260501183814 59 40 6.0 12.0 0.00 0.00 0.00 27 1021.9
20260501183719 59 47 6.0 12.0 0.00 0.00 0.00 27 1021.9
20260501183714 59 54 6.0 12.0 0.00 0.00 0.00 27 1021.9
20260501183614 60 79 5.0 12.0 0.00 0.00 0.00 27 1021.9
20260501183509 60 67 6.0 12.0 0.00 0.00 0.00 28 1021.9
20260501183416 59 65 6.0 12.0 0.00 0.00 0.00 28 1021.9
20260501183220 59 36 7.0 12.0 0.00 0.00 0.00 31 1021.9
20260501183216 59 35 7.0 12.0 0.00 0.00 0.00 33 1021.9
20260501183009 59 304 8.0 14.0 0.00 0.00 0.00 29 1022.2
20260501182910 59 347 8.0 14.0 0.00 0.00 0.00 30 1022.2
20260501182826 59 30 8.0 14.0 0.00 0.00 0.00 30 1022.0
20260501182710 58 62 8.0 14.0 0.00 0.00 0.00 30 1022.0
20260501182610 58 33 8.0 14.0 0.00 0.00 0.00 29 1022.2
20260501182508 58 75 8.0 14.0 0.00 0.00 0.00 28 1022.0